EXPRESS 2

Satellite information

Favourite Embed

Satellite Type and Status

PAYLOADIN ORBIT

Key statistics

Satellite EXPRESS 2 at a glance.

Uptime

10631

Days in orbit

Revolutions

≈ 1.0

Per day

Orbit

OTHER

Other

Inclination

14.6

Latest

Satellite identification and parameters

Extended collection of information and parameters for EXPRESS 2.

Object identification

Identified? True

Debris? False

Object name: EXPRESS 2

International designator: 1996-058A

Object number (NORAD): 24435

Object ID (CCSDS): 24435

Country: COMMONWEALTH OF INDEPENDENT STATES (CIS)

Current information (Y/N): Y

RCS size: LARGE

Orbital parameters

Period: 1435.513 minutes

Inclination: 14.5913 deg

SMA: 42153.293 km

Apoapsis: 35807.532 km

Periapsis: 35742.785 km

RAAN: 356.0735 deg

Eccentricy: 0.000768

Argument of periapsis: 341.6142 deg

Mean anomaly: 7.8652 deg

Mean motion: 1.00312602 rev/day

Mean motion (dot): 0.00000064 rev/day2

B* drag term: 0.0 1/REarth

Two-line elements (TLE)

Creation date: Nov. 3, 2025, 11:26 p.m.

Reference frame: TEME

Reference center: EARTH

Epoch: Nov. 3, 2025, 4:34 p.m. UTC

TLE line 0: 0 EXPRESS 2

TLE line 1: 1 24435U 96058A 25307.69036448 .00000064 00000-0 00000+0 0 9992

TLE line 2: 2 24435 14.5913 356.0735 0007680 341.6142 7.8652 1.00312602106543

Live tracking on map

Real-time ground track for satellite EXPRESS 2.

In-orbit conjunctions

A list of the most updated potential collisions computed for object EXPRESS 2.

Target Orbit TCA Probability of collision Miss distance Type
SL-12 R/B(2) OTHER 2024-07-20 05:25:57 TBA 3917.0 (m) ROCKET BODY

Associated space launch

The Ekspress series spacecraft for Data transmission, TV & radio-broadcasting, communications, Internet, video-conference closely resembled the Gals spacecraft and shared a similar spacecraft bus. Ekspress was to replace the widely used Gorizont spacecraft, and plans called for deployments at 13 locations (40 degrees, 53 degrees, 80 degrees, 90 degrees, 96.5 degrees, 99 degrees, 103 degrees, 140 degrees, 145 degrees, 205 degrees, 322.5 degrees, 346 degrees, and 349 degrees, all East longitude) for domestic needs and to support the Intersputnik Telecommunications Association.

EXPRESS 2 was lifted into orbit during the mission ‘Proton-K/DM-2M | Ekspress 2’, on board a Proton-K/DM-2M space rocket.

The launch took place on Sept. 26, 1996, 5:50 p.m. from 200/39 (200L).

For more information about the launch, click the button.

Launch to space Proton-K/DM-2M | Ekspress 2
Proton-K/DM-2M | Ekspress 2

Agency: N/A

Status: Launch Successful

Launch date: Sept. 26, 1996, 5:50 p.m. UTC

Rocket: Proton-K/DM-2M

Launch pad: 200/39 (200L)

Location: Baikonur Cosmodrome, Republic of Kazakhstan

...

Latest news about this satellite

There are no fresh news available about this satellite. Check back as we update our databases every day.


Newsletter sign-up

Weekly statistics, charts and insights to help you stay on top of the space industry.